Hourly Data Report for October 21, 2013

All times are specified in Local Standard Time (LST). Add 1 hour to adjust for Daylight Saving Time where and when it is observed.

KITCHENER/WATERLOO
ONTARIO

43°27'39.000" N
80°22'43.000" W
321.60 m
6144239
71368
YKF

Download Data

Hourly Data (October 2013)
Hourly Data Report for October 21, 2013
Temp Definition
°C
Dew Point Temp Definition
°C
Rel Hum Definition
%
Wind Dir Definition
10's deg

Wind Spd Definition
km/h
Visibility Definition
km
Stn Press Definition
kPa
Hmdx Definition


Wind Chill Definition


Weather Definition


TIME
00:00 Legend Double Dagger 7.4 4.3 81 18 9 16.1 97.44     LegendNANA
01:00 Legend Double Dagger 7.7 5.0 83 15 15 16.1 97.37     LegendNANA
02:00 Legend Double Dagger 8.9 6.2 83 17 11 16.1 97.36     LegendNANA
03:00 Legend Double Dagger 9.8 7.4 85 18 11 16.1 97.36     LegendNANA
04:00 Legend Double Dagger 9.5 8.0 90 20 11 16.1 97.36     LegendNANA
05:00 Legend Double Dagger 10.1 8.4 89 20 17 16.1 97.35     LegendNANA
06:00 Legend Double Dagger 10.1 8.6 90 19 17 16.1 97.33     LegendNANA
07:00 Legend Double Dagger 10.0 8.5 91 18 15 16.1 97.31     LegendNANA
08:00 Legend Double Dagger 10.7 8.6 87 20 18 16.1 97.33     LegendNANA
09:00 Legend Double Dagger 11.5 9.3 86 20 18 16.1 97.30     LegendNANA
10:00 Legend Double Dagger 12.1 9.2 82 21 22 16.1 97.29     LegendNANA
11:00 Legend Double Dagger 13.0 8.4 73 22 32 16.1 97.26     LegendNANA
12:00 Legend Double Dagger 13.2 8.4 72 21 37 16.1 97.20     LegendNANA
13:00 Legend Double Dagger 13.4 7.9 69 21 26 16.1 97.14     LegendNANA
14:00 Legend Double Dagger 13.2 7.9 70 21 24 16.1 97.12     LegendNANA
15:00 Legend Double Dagger 11.4 8.5 82 26 28 16.1 97.13     LegendNANA
16:00 Legend Double Dagger 10.2 8.7 90 22 17 14.5 97.11     LegendNANA
17:00 Legend Double Dagger 9.6 8.0 90 22 18 12.9 97.12     LegendNANA
18:00 Legend Double Dagger 9.5 8.1 91 20 24 16.1 97.11     LegendNANA
19:00 Legend Double Dagger 9.4 8.0 91 21 21 11.3 97.10     LegendNANA
20:00 Legend Double Dagger 9.1 8.0 93 21 15 14.5 97.02     LegendNANA
21:00 Legend Double Dagger 8.4 6.9 90 27 21 14.5 97.04     LegendNANA
22:00 Legend Double Dagger 7.8 4.7 80 26 21 16.1 97.03     LegendNANA
23:00 Legend Double Dagger 6.8 3.9 82 25 17 16.1 97.00     LegendNANA

Notes on Data Quality.

Legend

  • E = Estimated
  • M = Missing
  • NA = Not Available
  • ‡ = Partner data that is not subject to review by the National Climate Archives
Date modified: